sat.trackr.live / text

‹ back to catalog

STARLINK-30496

NORAD 57919 · 2023-147G

PAYLOAD ACTIVE UNKNOWN

§ Identity

Operator
Country
US
Launch date
2023-09-24
Launch site
AFETR
Launch vehicle
Mass (kg)
RCS (m²)

Purposes: comms

External: N2YO · Heavens-Above · Gunter

§ Orbital elements

Epoch: 2026-05-25T00:47:06.239040Z

Period
94.27 min
Inclination
43.0037°
Eccentricity
0.0001503
Mean motion
15.27585523 rev/d
Perigee alt
482.0 km
Apogee alt
484.1 km
Semi-major
6,861.2 km
B*
7.0802e-6
RAAN
254.0671°
Arg perigee
270.1991°
Mean anomaly
89.8689°
Rev number
14,830

§ Raw data

STARLINK-304961 57919U 23147G   26145.03271110 -.00000067  00000+0  70802-5 0  99962 57919  43.0037 254.0671 0001503 270.1991  89.8689 15.27585523148300

JSON: /api/v1/satellites/57919 · /tle

For live sub-satellite position, see the globe view (requires WebGL).

§ Visibility from observer

Set your observer location to see the next 7 days of passes ≥ 10°. The values pass through the URL so the page stays shareable.

No JS? Fill the form by hand. The geolocation button needs JavaScript.